When you browse on this site, cookies collect data to enhance your experience and personalize the content and advertising you see.
Visit our Privacy Policy to learn more. By continuing to use the site, you agree to this use of cookies and data.
  • In Sweden
  • List of Countries
  • For 7 days
  • Water Temperature
  • Satellite Maps
  • Weather Map
  • Weather Widgets
  • user-avatar
    Login

    Hourly Weather Ambikapur

    Today, 11 December, Tuesday

    Time Temperature Precipitation Wind Pressure Humidity
    00:00 +16°C° 0 mm 1 mps 707 mmHg 79%
    01:00 +16°C° 0.5 mm 1 mps 707 mmHg 81%
    02:00 +16°C° 0.5 mm 1 mps 707 mmHg 82%
    03:00 +16°C° 0.5 mm 1 mps 707 mmHg 84%
    04:00 +16°C° 0.2 mm 1 mps 706 mmHg 84%
    05:00 +15°C° 0.2 mm 1 mps 706 mmHg 84%
    06:00 +14°C° 0 mm 0 mps 706 mmHg 83%
    07:00 +16°C° 0 mm 1 mps 707 mmHg 78%
    08:00 +19°C° 0 mm 1 mps 707 mmHg 72%
    09:00 +20°C° 0 mm 1 mps 708 mmHg 66%
    10:00 +22°C° 0 mm 1 mps 708 mmHg 61%
    11:00 +24°C° 0 mm 1 mps 708 mmHg 56%
    12:00 +26°C° 0 mm 2 mps 708 mmHg 51%
    13:00 +26°C° 0 mm 2 mps 708 mmHg 48%
    14:00 +27°C° 0 mm 3 mps 707 mmHg 45%
    15:00 +27°C° 0 mm 3 mps 707 mmHg 41%
    16:00 +25°C° 0 mm 2 mps 707 mmHg 46%
    17:00 +24°C° 0 mm 2 mps 707 mmHg 51%
    18:00 +20°C° 0 mm 2 mps 707 mmHg 61%
    19:00 +20°C° 0 mm 1 mps 707 mmHg 66%
    20:00 +19°C° 0 mm 1 mps 707 mmHg 70%
    21:00 +18°C° 0 mm 1 mps 707 mmHg 75%
    22:00 +18°C° 0 mm 1 mps 707 mmHg 77%
    23:00 +16°C° 0 mm 1 mps 707 mmHg 79%

    Tomorrow, 12 December, Wednesday

    Time Temperature Precipitation Wind Pressure Humidity
    00:00 +16°C° 0 mm 1 mps 707 mmHg 81%
    01:00 +16°C° 0 mm 1 mps 707 mmHg 82%
    02:00 +15°C° 0 mm 1 mps 707 mmHg 83%
    03:00 +15°C° 0 mm 1 mps 707 mmHg 84%
    04:00 +15°C° 0 mm 1 mps 707 mmHg 85%
    05:00 +15°C° 0 mm 1 mps 707 mmHg 86%
    06:00 +14°C° 0 mm 1 mps 707 mmHg 87%
    07:00 +16°C° 0 mm 1 mps 707 mmHg 80%
    08:00 +19°C° 0 mm 1 mps 708 mmHg 72%
    09:00 +21°C° 0 mm 1 mps 709 mmHg 65%
    10:00 +23°C° 0 mm 1 mps 709 mmHg 59%
    11:00 +25°C° 0 mm 1 mps 709 mmHg 53%
    12:00 +27°C° 0 mm 1 mps 710 mmHg 46%
    13:00 +26°C° 0 mm 1 mps 709 mmHg 46%
    14:00 +26°C° 0 mm 1 mps 708 mmHg 46%
    15:00 +25°C° 0 mm 1 mps 707 mmHg 46%
    16:00 +24°C° 0 mm 1 mps 707 mmHg 50%
    17:00 +23°C° 0 mm 1 mps 707 mmHg 53%
    18:00 +22°C° 0 mm 1 mps 707 mmHg 57%
    19:00 +21°C° 0 mm 1 mps 708 mmHg 60%
    20:00 +20°C° 0 mm 1 mps 708 mmHg 64%
    21:00 +19°C° 0 mm 2 mps 708 mmHg 68%
    22:00 +18°C° 0 mm 2 mps 708 mmHg 70%
    23:00 +18°C° 0 mm 1 mps 708 mmHg 73%

    Day after tomorrow, 13 December, Thursday

    Time Temperature Precipitation Wind Pressure Humidity
    00:00 +18°C° 0 mm 1 mps 708 mmHg 76%
    01:00 +16°C° 0 mm 1 mps 708 mmHg 78%
    02:00 +16°C° 0 mm 1 mps 708 mmHg 80%
    03:00 +15°C° 0 mm 1 mps 708 mmHg 82%
    04:00 +15°C° 0 mm 1 mps 708 mmHg 83%
    05:00 +15°C° 0 mm 1 mps 708 mmHg 84%
    06:00 +15°C° 0 mm 1 mps 708 mmHg 85%
    07:00 +18°C° 0 mm 1 mps 709 mmHg 77%
    08:00 +19°C° 0 mm 1 mps 709 mmHg 70%
    09:00 +21°C° 0 mm 1 mps 710 mmHg 62%
    10:00 +23°C° 0 mm 1 mps 710 mmHg 55%
    11:00 +25°C° 0 mm 1 mps 710 mmHg 48%
    12:00 +27°C° 0 mm 1 mps 710 mmHg 41%
    13:00 +27°C° 0 mm 1 mps 709 mmHg 39%
    14:00 +27°C° 0 mm 2 mps 709 mmHg 36%
    15:00 +27°C° 0 mm 2 mps 708 mmHg 34%
    16:00 +25°C° 0 mm 2 mps 708 mmHg 40%
    17:00 +23°C° 0 mm 2 mps 708 mmHg 45%
    18:00 +20°C° 0 mm 2 mps 708 mmHg 50%
    19:00 +19°C° 0 mm 2 mps 708 mmHg 56%
    20:00 +18°C° 0 mm 2 mps 709 mmHg 62%
    21:00 +17°C° 0 mm 2 mps 709 mmHg 68%
    22:00 +17°C° 0 mm 2 mps 709 mmHg 70%
    23:00 +16°C° 0 mm 2 mps 709 mmHg 72%

    14 December, Friday

    Time Temperature Precipitation Wind Pressure Humidity
    00:00 +16°C° 0 mm 2 mps 709 mmHg 74%
    01:00 +16°C° 0 mm 2 mps 709 mmHg 75%
    02:00 +15°C° 0 mm 2 mps 709 mmHg 76%
    03:00 +15°C° 0 mm 2 mps 709 mmHg 77%
    04:00 +15°C° 0 mm 2 mps 709 mmHg 77%
    05:00 +14°C° 0 mm 2 mps 709 mmHg 78%
    06:00 +14°C° 0 mm 2 mps 709 mmHg 78%
    07:00 +16°C° 0 mm 2 mps 710 mmHg 71%
    08:00 +17°C° 0 mm 2 mps 710 mmHg 64%
    09:00 +19°C° 0 mm 2 mps 711 mmHg 56%
    10:00 +21°C° 0 mm 2 mps 711 mmHg 51%
    11:00 +24°C° 0 mm 2 mps 711 mmHg 46%
    12:00 +25°C° 0 mm 2 mps 711 mmHg 41%
    13:00 +26°C° 0 mm 2 mps 711 mmHg 40%
    14:00 +26°C° 0 mm 2 mps 710 mmHg 38%
    15:00 +26°C° 0 mm 2 mps 710 mmHg 37%
    16:00 +24°C° 0 mm 2 mps 709 mmHg 41%
    17:00 +21°C° 0 mm 2 mps 709 mmHg 45%
    18:00 +19°C° 0 mm 2 mps 709 mmHg 49%
    19:00 +18°C° 0 mm 2 mps 710 mmHg 51%
    20:00 +17°C° 0 mm 2 mps 710 mmHg 54%
    21:00 +16°C° 0 mm 2 mps 711 mmHg 56%
    22:00 +16°C° 0 mm 2 mps 711 mmHg 57%
    23:00 +15°C° 0 mm 2 mps 711 mmHg 58%

    15 December, Saturday

    Time Temperature Precipitation Wind Pressure Humidity
    00:00 +15°C° 0 mm 2 mps 711 mmHg 60%
    01:00 +14°C° 0 mm 2 mps 710 mmHg 61%
    02:00 +14°C° 0 mm 2 mps 710 mmHg 62%
    03:00 +13°C° 0 mm 2 mps 709 mmHg 64%
    04:00 +13°C° 0 mm 2 mps 709 mmHg 64%
    05:00 +13°C° 0 mm 2 mps 709 mmHg 65%
    06:00 +12°C° 0 mm 2 mps 709 mmHg 66%
    07:00 +14°C° 0 mm 2 mps 710 mmHg 59%
    08:00 +16°C° 0 mm 2 mps 711 mmHg 53%
    09:00 +18°C° 0 mm 2 mps 712 mmHg 46%
    10:00 +20°C° 0 mm 2 mps 712 mmHg 42%
    11:00 +23°C° 0 mm 2 mps 712 mmHg 37%
    12:00 +25°C° 0 mm 1 mps 712 mmHg 33%
    13:00 +25°C° 0 mm 2 mps 711 mmHg 31%
    14:00 +25°C° 0 mm 2 mps 711 mmHg 30%
    15:00 +25°C° 0 mm 2 mps 710 mmHg 29%
    16:00 +24°C° 0 mm 2 mps 710 mmHg 33%
    17:00 +21°C° 0 mm 2 mps 710 mmHg 36%
    18:00 +19°C° 0 mm 2 mps 710 mmHg 40%
    19:00 +18°C° 0 mm 2 mps 711 mmHg 41%
    20:00 +18°C° 0 mm 2 mps 711 mmHg 43%
    21:00 +18°C° 0 mm 1 mps 711 mmHg 44%
    22:00 +18°C° 0 mm 1 mps 711 mmHg 44%
    23:00 +18°C° 0 mm 1 mps 711 mmHg 44%

    16 December, Sunday

    Time Temperature Precipitation Wind Pressure Humidity
    00:00 +18°C° 0 mm 1 mps 711 mmHg 44%
    01:00 +18°C° 0 mm 1 mps 711 mmHg 44%
    02:00 +16°C° 0 mm 1 mps 711 mmHg 44%
    03:00 +16°C° 0 mm 1 mps 710 mmHg 44%
    04:00 +16°C° 0 mm 1 mps 710 mmHg 43%
    05:00 +16°C° 0 mm 1 mps 710 mmHg 43%
    06:00 +16°C° 0 mm 1 mps 710 mmHg 42%
    07:00 +16°C° 0 mm 1 mps 711 mmHg 42%
    08:00 +16°C° 0 mm 1 mps 712 mmHg 42%
    09:00 +18°C° 0 mm 1 mps 712 mmHg 42%
    10:00 +18°C° 0 mm 1 mps 712 mmHg 42%
    11:00 +18°C° 0 mm 1 mps 712 mmHg 42%
    12:00 +19°C° 0 mm 1 mps 712 mmHg 42%
    13:00 +19°C° 0 mm 1 mps 712 mmHg 42%
    14:00 +17°C° 0 mm 0 mps 711 mmHg 42%
    15:00 +17°C° 0 mm 0 mps 711 mmHg 42%
    16:00 +16°C° 0 mm 0 mps 711 mmHg 44%
    17:00 +16°C° 0 mm 0 mps 710 mmHg 45%
    18:00 +15°C° 0 mm 0 mps 710 mmHg 46%
    19:00 +15°C° 0 mm 0 mps 711 mmHg 46%
    20:00 +15°C° 0 mm 0 mps 711 mmHg 46%
    21:00 +15°C° 0 mm 0 mps 711 mmHg 45%
    22:00 +15°C° 0 mm 0 mps 711 mmHg 45%
    23:00 +15°C° 0 mm 0 mps 711 mmHg 46%
    Show more